Time,TemperatureF,DewpointF,PressureIn,WindDirection,WindDirectionDegrees,WindSpeedMPH,WindSpeedGustMPH,Humidity,HourlyPrecipIn,Conditions,Clouds,dailyrainin,SoftwareType,DateUTC
2013-06-10 07:43:00,58.0,41.0,29.78,NNW,327,9.2,9.2,53,0.00,CLR,,0.00,WeatherDisplay:10.37,2013-06-10 14:43:00,
2013-06-10 07:46:00,58.0,41.9,29.78,NNW,327,7.0,7.0,55,0.00,CLR,,0.00,WeatherDisplay:10.37,2013-06-10 14:46:00,
2013-06-10 07:47:00,58.0,41.9,29.78,NNW,327,1.1,1.1,55,0.00,CLR,,0.00,WeatherDisplay:10.37,2013-06-10 14:47:00,
2013-06-10 07:52:00,58.6,42.9,29.78,NW,324,2.3,2.3,56,0.00,CLR,,0.00,WeatherDisplay:10.37,2013-06-10 14:52:00,
2013-06-10 07:57:00,58.8,40.7,29.78,NNW,340,5.8,5.8,51,0.00,CLR,,0.00,WeatherDisplay:10.37,2013-06-10 14:57:00,
2013-06-10 08:02:00,58.7,41.1,29.79,NNW,329,5.8,5.8,52,0.00,CLR,,0.00,WeatherDisplay:10.37,2013-06-10 15:02:00,
2013-06-10 08:07:00,58.8,41.7,29.79,NW,326,3.5,3.5,53,0.00,CLR,,0.00,WeatherDisplay:10.37,2013-06-10 15:07:00,
2013-06-10 08:12:00,59.0,41.9,29.79,NW,323,5.8,5.8,53,0.00,CLR,,0.00,WeatherDisplay:10.37,2013-06-10 15:12:00,
2013-06-10 08:17:00,59.3,42.2,29.80,NNW,329,3.5,3.5,53,0.00,CLR,,0.00,WeatherDisplay:10.37,2013-06-10 15:17:00,
2013-06-10 08:22:00,59.9,41.2,29.80,North,355,3.5,3.5,50,0.00,CLR,,0.00,WeatherDisplay:10.37,2013-06-10 15:22:00,
2013-06-10 08:27:00,59.9,41.7,29.80,NW,319,4.6,4.6,51,0.00,CLR,,0.00,WeatherDisplay:10.37,2013-06-10 15:27:00,
2013-06-10 08:32:00,60.0,43.3,29.80,WNW,298,3.5,3.5,54,0.00,CLR,,0.00,WeatherDisplay:10.37,2013-06-10 15:32:00,
2013-06-10 08:37:00,60.4,42.2,29.80,NW,323,4.6,4.6,51,0.00,CLR,,0.00,WeatherDisplay:10.37,2013-06-10 15:37:00,
2013-06-10 08:42:00,60.5,41.2,29.79,North,5,3.5,3.5,49,0.00,CLR,,0.00,WeatherDisplay:10.37,2013-06-10 15:42:00,
2013-06-10 08:47:00,60.7,41.9,29.78,NNW,327,7.0,7.0,50,0.00,CLR,,0.00,WeatherDisplay:10.37,2013-06-10 15:47:00,
2013-06-10 08:52:00,60.9,42.6,29.78,NNW,339,7.0,7.0,51,0.00,CLR,,0.00,WeatherDisplay:10.37,2013-06-10 15:52:00,
2013-06-10 08:57:00,61.2,41.9,29.78,NW,323,6.9,6.9,49,0.00,CLR,,0.00,WeatherDisplay:10.37,2013-06-10 15:57:00,
2013-06-10 09:02:00,61.3,41.4,29.79,NW,323,1.1,1.1,48,0.00,CLR,,0.00,WeatherDisplay:10.37,2013-06-10 16:02:00,
2013-06-10 09:07:00,61.3,42.5,29.79,WNW,290,3.5,3.5,50,0.00,CLR,,0.00,WeatherDisplay:10.37,2013-06-10 16:07:00,
2013-06-10 09:12:00,61.5,42.2,29.79,North,350,4.6,4.6,49,0.00,CLR,,0.00,WeatherDisplay:10.37,2013-06-10 16:12:00,
2013-06-10 09:17:00,61.4,41.5,29.79,NNW,329,6.9,6.9,48,0.00,CLR,,0.00,WeatherDisplay:10.37,2013-06-10 16:17:00,
2013-06-10 09:22:00,61.4,41.5,29.79,NW,313,4.0,4.0,48,0.00,CLR,,0.00,WeatherDisplay:10.37,2013-06-10 16:22:00,
2013-06-10 09:27:00,61.2,42.4,29.79,NW,317,3.5,3.5,50,0.00,CLR,,0.00,WeatherDisplay:10.37,2013-06-10 16:27:00,
2013-06-10 09:32:00,61.4,42.6,29.79,NW,308,6.0,6.0,50,0.00,CLR,,0.00,WeatherDisplay:10.37,2013-06-10 16:32:00,
2013-06-10 09:37:00,61.9,42.0,29.79,North,5,9.2,9.2,48,0.00,CLR,,0.00,WeatherDisplay:10.37,2013-06-10 16:37:00,
2013-06-10 09:42:00,62.2,42.3,29.79,NW,320,5.0,5.0,48,0.00,CLR,,0.00,WeatherDisplay:10.37,2013-06-10 16:42:00,
2013-06-10 09:48:00,62.1,42.7,29.79,NNW,331,8.1,8.1,49,0.00,CLR,,0.00,WeatherDisplay:10.37,2013-06-10 16:48:00,
2013-06-10 09:53:00,62.1,42.2,29.79,North,360,7.0,7.0,48,0.00,CLR,,0.00,WeatherDisplay:10.37,2013-06-10 16:53:00,
2013-06-10 09:58:00,62.5,41.4,29.78,NNW,331,4.6,4.6,46,0.00,CLR,,0.00,WeatherDisplay:10.37,2013-06-10 16:58:00,
2013-06-10 10:03:00,62.9,42.4,29.81,NW,323,3.5,3.5,47,0.00,CLR,,0.00,WeatherDisplay:10.37,2013-06-10 17:03:00,
2013-06-10 10:08:00,63.0,42.4,29.81,NW,320,3.5,3.5,47,0.00,CLR,,0.00,WeatherDisplay:10.37,2013-06-10 17:08:00,
2013-06-10 10:13:00,63.1,44.7,29.81,NW,319,4.6,4.6,51,0.00,CLR,,0.00,WeatherDisplay:10.37,2013-06-10 17:13:00,
2013-06-10 10:18:00,63.5,44.5,29.80,North,360,4.0,4.0,50,0.00,CLR,,0.00,WeatherDisplay:10.37,2013-06-10 17:18:00,
2013-06-10 10:23:00,63.8,44.3,29.81,NNE,22,5.8,5.8,49,0.00,CLR,,0.00,WeatherDisplay:10.37,2013-06-10 17:23:00,
2013-06-10 10:28:00,64.0,45.5,29.80,NNW,348,1.1,0.0,51,0.00,CLR,,0.00,WeatherDisplay:10.37,2013-06-10 17:28:00,
2013-06-10 10:33:00,64.2,43.5,29.80,North,360,5.8,5.8,47,0.00,CLR,,0.00,WeatherDisplay:10.37,2013-06-10 17:33:00,
2013-06-10 10:38:00,64.5,44.4,29.79,North,349,5.8,5.8,48,0.00,CLR,,0.00,WeatherDisplay:10.37,2013-06-10 17:38:00,
2013-06-10 10:43:00,64.9,44.7,29.79,NNE,18,4.6,4.6,48,0.00,CLR,,0.00,WeatherDisplay:10.37,2013-06-10 17:43:00,
2013-06-10 10:48:00,65.1,44.9,29.79,NNW,346,4.6,4.6,48,0.00,CLR,,0.00,WeatherDisplay:10.37,2013-06-10 17:48:00,
2013-06-10 10:53:00,65.1,43.2,29.79,NNW,329,5.8,5.8,45,0.00,CLR,,0.00,WeatherDisplay:10.37,2013-06-10 17:53:00,
2013-06-10 10:58:00,64.8,44.6,29.79,NNE,17,4.6,4.6,48,0.00,CLR,,0.00,WeatherDisplay:10.37,2013-06-10 17:58:00,
2013-06-10 11:03:00,65.3,44.5,29.79,NNE,14,10.4,10.4,47,0.00,CLR,,0.00,WeatherDisplay:10.37,2013-06-10 18:03:00,
2013-06-10 11:08:00,65.4,45.2,29.79,NNW,329,3.5,3.5,48,0.00,CLR,,0.00,WeatherDisplay:10.37,2013-06-10 18:08:00,
2013-06-10 11:13:00,65.2,45.0,29.79,NNW,340,5.8,5.8,48,0.00,CLR,,0.00,WeatherDisplay:10.37,2013-06-10 18:13:00,
2013-06-10 11:18:00,65.4,45.7,29.80,NW,319,6.0,6.0,49,0.00,CLR,,0.00,WeatherDisplay:10.37,2013-06-10 18:18:00,
2013-06-10 11:23:00,66.0,45.7,29.79,NNW,327,5.8,5.8,48,0.00,CLR,,0.00,WeatherDisplay:10.37,2013-06-10 18:23:00,
2013-06-10 11:28:00,66.3,45.5,29.78,NNE,32,5.8,5.8,47,0.00,CLR,,0.00,WeatherDisplay:10.37,2013-06-10 18:28:00,
2013-06-10 11:33:00,66.1,44.1,29.79,West,276,4.6,4.6,45,0.00,CLR,,0.00,WeatherDisplay:10.37,2013-06-10 18:33:00,
2013-06-10 11:38:00,65.4,45.7,29.79,North,5,11.5,11.5,49,0.00,CLR,,0.00,WeatherDisplay:10.37,2013-06-10 18:38:00,
2013-06-10 11:43:00,65.7,45.5,29.78,North,360,4.0,4.0,48,0.00,CLR,,0.00,WeatherDisplay:10.37,2013-06-10 18:43:00,
2013-06-10 11:48:00,66.2,47.5,29.78,NW,325,6.0,6.0,51,0.00,CLR,,0.00,WeatherDisplay:10.37,2013-06-10 18:48:00,
2013-06-10 11:53:00,66.6,45.7,29.78,North,5,5.8,5.8,47,0.00,CLR,,0.00,WeatherDisplay:10.37,2013-06-10 18:53:00,
2013-06-10 11:58:00,67.1,46.2,29.78,NNW,330,4.6,4.6,47,0.00,CLR,,0.00,WeatherDisplay:10.37,2013-06-10 18:58:00,
2013-06-10 12:03:00,67.2,48.5,29.78,North,5,4.6,4.6,51,0.00,CLR,,0.00,WeatherDisplay:10.37,2013-06-10 19:03:00,
2013-06-10 12:08:00,67.3,46.9,29.79,NNW,345,6.9,6.9,48,0.00,CLR,,0.00,WeatherDisplay:10.37,2013-06-10 19:08:00,
2013-06-10 12:13:00,67.6,48.3,29.79,North,360,4.6,4.6,50,0.00,CLR,,0.00,WeatherDisplay:10.37,2013-06-10 19:13:00,
2013-06-10 12:18:00,67.6,47.8,29.78,NW,317,3.5,3.5,49,0.00,CLR,,0.00,WeatherDisplay:10.37,2013-06-10 19:18:00,
2013-06-10 12:23:00,67.2,48.5,29.78,NNW,328,3.5,3.5,51,0.00,CLR,,0.00,WeatherDisplay:10.37,2013-06-10 19:23:00,
2013-06-10 12:28:00,67.6,47.8,29.78,NNW,346,3.5,3.5,49,0.00,CLR,,0.00,WeatherDisplay:10.37,2013-06-10 19:28:00,
2013-06-10 12:33:00,68.0,45.9,29.78,NW,306,3.5,3.5,45,0.00,CLR,,0.00,WeatherDisplay:10.37,2013-06-10 19:33:00,
2013-06-10 12:38:00,68.1,45.9,29.78,NW,323,4.6,4.6,45,0.00,CLR,,0.00,WeatherDisplay:10.37,2013-06-10 19:38:00,
2013-06-10 12:43:00,68.3,46.1,29.78,NNE,15,7.0,7.0,45,0.00,CLR,,0.00,WeatherDisplay:10.37,2013-06-10 19:43:00,
2013-06-10 12:48:00,68.0,45.9,29.78,ENE,61,4.6,4.6,45,0.00,CLR,,0.00,WeatherDisplay:10.37,2013-06-10 19:48:00,
2013-06-10 12:53:00,67.3,45.2,29.77,WNW,284,9.2,9.2,45,0.00,CLR,,0.00,WeatherDisplay:10.37,2013-06-10 19:53:00,
2013-06-10 12:58:00,66.1,42.3,29.78,WNW,284,4.6,4.6,42,0.00,CLR,,0.00,WeatherDisplay:10.37,2013-06-10 19:58:00,
2013-06-10 13:03:00,66.1,46.9,29.78,NNE,15,3.5,3.5,50,0.00,CLR,,0.00,WeatherDisplay:10.37,2013-06-10 20:03:00,
2013-06-10 13:08:00,66.4,43.8,29.78,NW,315,3.5,3.5,44,0.00,CLR,,0.00,WeatherDisplay:10.37,2013-06-10 20:08:00,
2013-06-10 13:13:00,67.3,47.5,29.77,NNW,333,2.3,2.3,49,0.00,CLR,,0.00,WeatherDisplay:10.37,2013-06-10 20:13:00,
2013-06-10 13:18:00,68.5,44.5,29.76,NW,326,4.0,4.0,42,0.00,CLR,,0.00,WeatherDisplay:10.37,2013-06-10 20:18:00,
2013-06-10 13:23:00,68.9,45.5,29.77,NNW,331,3.5,3.5,43,0.00,CLR,,0.00,WeatherDisplay:10.37,2013-06-10 20:23:00,
2013-06-10 13:28:00,69.1,45.0,29.76,NW,325,5.8,5.8,42,0.00,CLR,,0.00,WeatherDisplay:10.37,2013-06-10 20:28:00,
2013-06-10 13:33:00,69.8,46.9,29.75,North,355,3.5,3.5,44,0.00,CLR,,0.00,WeatherDisplay:10.37,2013-06-10 20:33:00,
2013-06-10 13:38:00,70.2,45.4,29.76,NNW,348,3.5,3.5,41,0.00,CLR,,0.00,WeatherDisplay:10.37,2013-06-10 20:38:00,
2013-06-10 13:43:00,70.6,46.4,29.75,NNW,334,2.3,2.3,42,0.00,CLR,,0.00,WeatherDisplay:10.37,2013-06-10 20:43:00,
2013-06-10 13:48:00,71.0,45.5,29.75,NNW,331,5.0,5.0,40,0.00,CLR,,0.00,WeatherDisplay:10.37,2013-06-10 20:48:00,
2013-06-10 13:53:00,71.2,42.9,29.75,NNW,336,6.0,6.0,36,0.00,CLR,,0.00,WeatherDisplay:10.37,2013-06-10 20:53:00,
2013-06-10 13:58:00,71.2,41.4,29.75,NW,304,5.0,5.0,34,0.00,CLR,,0.00,WeatherDisplay:10.37,2013-06-10 20:58:00,
2013-06-10 14:03:00,71.2,46.3,29.75,NE,34,5.8,5.8,41,0.00,CLR,,0.00,WeatherDisplay:10.37,2013-06-10 21:03:00,
2013-06-10 14:08:00,71.3,44.4,29.75,WNW,296,9.0,9.0,38,0.00,CLR,,0.00,WeatherDisplay:10.37,2013-06-10 21:08:00,
2013-06-10 14:13:00,71.7,42.6,29.74,NNW,345,5.8,5.8,35,0.00,CLR,,0.00,WeatherDisplay:10.37,2013-06-10 21:13:00,
2013-06-10 14:18:00,71.6,45.3,29.74,NNE,25,9.2,9.2,39,0.00,CLR,,0.00,WeatherDisplay:10.37,2013-06-10 21:18:00,
2013-06-10 14:23:00,72.2,47.2,29.74,NW,316,5.8,5.8,41,0.00,CLR,,0.00,WeatherDisplay:10.37,2013-06-10 21:23:00,
2013-06-10 14:28:00,72.2,43.8,29.74,NNW,331,5.8,5.8,36,0.00,CLR,,0.00,WeatherDisplay:10.37,2013-06-10 21:28:00,
2013-06-10 14:33:00,72.1,44.4,29.74,NW,322,4.6,4.6,37,0.00,CLR,,0.00,WeatherDisplay:10.37,2013-06-10 21:33:00,
2013-06-10 14:39:00,72.0,45.0,29.74,NW,314,3.5,3.5,38,0.00,CLR,,0.00,WeatherDisplay:10.37,2013-06-10 21:39:00,
2013-06-10 14:44:00,71.9,44.9,29.73,North,9,3.5,3.5,38,0.00,CLR,,0.00,WeatherDisplay:10.37,2013-06-10 21:44:00,
2013-06-10 14:49:00,72.2,42.3,29.73,NW,315,5.8,5.8,34,0.00,CLR,,0.00,WeatherDisplay:10.37,2013-06-10 21:49:00,
2013-06-10 14:54:00,72.5,45.4,29.73,North,9,6.9,6.9,38,0.00,CLR,,0.00,WeatherDisplay:10.37,2013-06-10 21:54:00,
2013-06-10 14:59:00,72.6,43.4,29.73,NW,312,6.9,6.9,35,0.00,CLR,,0.00,WeatherDisplay:10.37,2013-06-10 21:59:00,
2013-06-10 15:04:00,72.8,45.7,29.71,NW,325,3.5,3.5,38,0.00,CLR,,0.00,WeatherDisplay:10.37,2013-06-10 22:04:00,
2013-06-10 15:09:00,72.7,44.9,29.71,NW,310,6.0,6.0,37,0.00,CLR,,0.00,WeatherDisplay:10.37,2013-06-10 22:09:00,
2013-06-10 15:14:00,73.0,48.5,29.71,NNW,338,3.5,3.5,42,0.00,CLR,,0.00,WeatherDisplay:10.37,2013-06-10 22:14:00,
2013-06-10 15:19:00,73.1,46.7,29.71,NW,325,3.5,3.5,39,0.00,CLR,,0.00,WeatherDisplay:10.37,2013-06-10 22:19:00,
2013-06-10 15:24:00,73.2,43.1,29.71,NW,317,5.8,5.8,34,0.00,CLR,,0.00,WeatherDisplay:10.37,2013-06-10 22:24:00,
2013-06-10 15:29:00,73.1,46.0,29.71,NNE,13,5.8,5.8,38,0.00,CLR,,0.00,WeatherDisplay:10.37,2013-06-10 22:29:00,
2013-06-10 15:34:00,73.0,45.2,29.70,NNE,20,5.0,5.0,37,0.00,CLR,,0.00,WeatherDisplay:10.37,2013-06-10 22:34:00,
2013-06-10 15:39:00,72.8,44.3,29.70,NNE,32,9.2,9.2,36,0.00,CLR,,0.00,WeatherDisplay:10.37,2013-06-10 22:39:00,
2013-06-10 15:44:00,72.5,47.5,29.70,WNW,296,6.9,6.9,41,0.00,CLR,,0.00,WeatherDisplay:10.37,2013-06-10 22:44:00,
2013-06-10 15:49:00,72.5,47.5,29.70,North,355,6.0,6.0,41,0.00,CLR,,0.00,WeatherDisplay:10.37,2013-06-10 22:49:00,
2013-06-10 15:54:00,72.6,46.2,29.70,WNW,302,5.8,5.8,39,0.00,CLR,,0.00,WeatherDisplay:10.37,2013-06-10 22:54:00,
2013-06-10 15:59:00,72.7,45.6,29.71,WNW,295,5.8,5.8,38,0.00,CLR,,0.00,WeatherDisplay:10.37,2013-06-10 22:59:00,
2013-06-10 16:04:00,72.2,45.2,29.71,NNE,21,9.2,9.2,38,0.00,CLR,,0.00,WeatherDisplay:10.37,2013-06-10 23:04:00,
2013-06-10 16:09:00,72.0,45.7,29.71,North,355,6.9,6.9,39,0.00,CLR,,0.00,WeatherDisplay:10.37,2013-06-10 23:09:00,
2013-06-10 16:14:00,72.2,45.2,29.71,NW,326,10.4,10.4,38,0.00,CLR,,0.00,WeatherDisplay:10.37,2013-06-10 23:14:00,
2013-06-10 16:19:00,72.0,45.7,29.71,North,360,12.7,12.7,39,0.00,CLR,,0.00,WeatherDisplay:10.37,2013-06-10 23:19:00,
2013-06-10 16:24:00,72.4,48.0,29.71,NE,46,5.0,5.0,42,0.00,CLR,,0.00,WeatherDisplay:10.37,2013-06-10 23:24:00,
2013-06-10 16:29:00,72.8,45.7,29.71,North,350,4.6,4.6,38,0.00,CLR,,0.00,WeatherDisplay:10.37,2013-06-10 23:29:00,
2013-06-10 16:34:00,73.1,45.3,29.71,NW,323,7.0,7.0,37,0.00,CLR,,0.00,WeatherDisplay:10.37,2013-06-10 23:34:00,
2013-06-10 16:39:00,73.2,46.8,29.71,NW,323,2.3,2.3,39,0.00,CLR,,0.00,WeatherDisplay:10.37,2013-06-10 23:39:00,
2013-06-10 16:44:00,73.6,45.7,29.70,NNW,340,5.8,5.8,37,0.00,CLR,,0.00,WeatherDisplay:10.37,2013-06-10 23:44:00,
2013-06-10 16:49:00,73.4,44.1,29.70,NNW,331,3.5,3.5,35,0.00,CLR,,0.00,WeatherDisplay:10.37,2013-06-10 23:49:00,
2013-06-10 16:54:00,73.5,46.3,29.70,NNW,333,5.8,5.8,38,0.00,CLR,,0.00,WeatherDisplay:10.37,2013-06-10 23:54:00,
2013-06-10 16:59:00,73.7,47.9,29.69,NW,309,4.6,4.6,40,0.00,CLR,,0.00,WeatherDisplay:10.37,2013-06-10 23:59:00,
2013-06-10 17:04:00,73.8,45.2,29.67,NW,315,10.4,10.4,36,0.00,CLR,,0.00,WeatherDisplay:10.37,2013-06-11 00:04:00,
2013-06-10 17:09:00,73.6,47.1,29.67,West,269,3.5,3.5,39,0.00,CLR,,0.00,WeatherDisplay:10.37,2013-06-11 00:09:00,
2013-06-10 17:14:00,73.5,44.9,29.66,WNW,302,11.5,11.5,36,0.00,CLR,,0.00,WeatherDisplay:10.37,2013-06-11 00:14:00,
2013-06-10 17:19:00,73.1,43.8,29.67,NNW,338,5.8,5.8,35,0.00,CLR,,0.00,WeatherDisplay:10.37,2013-06-11 00:19:00,
2013-06-10 17:24:00,73.3,45.4,29.67,NNW,339,2.3,2.3,37,0.00,CLR,,0.00,WeatherDisplay:10.37,2013-06-11 00:24:00,
2013-06-10 17:29:00,73.2,43.1,29.66,NNE,24,11.5,11.5,34,0.00,CLR,,0.00,WeatherDisplay:10.37,2013-06-11 00:29:00,
2013-06-10 17:34:00,72.9,43.6,29.66,WNW,294,6.0,6.0,35,0.00,CLR,,0.00,WeatherDisplay:10.37,2013-06-11 00:34:00,
2013-06-10 17:39:00,72.8,44.3,29.66,North,355,4.6,4.6,36,0.00,CLR,,0.00,WeatherDisplay:10.37,2013-06-11 00:39:00,
2013-06-10 17:44:00,72.8,44.3,29.66,North,355,1.1,1.1,36,0.00,CLR,,0.00,WeatherDisplay:10.37,2013-06-11 00:44:00,
2013-06-10 17:49:00,72.4,43.9,29.66,NW,323,5.0,5.0,36,0.00,CLR,,0.00,WeatherDisplay:10.37,2013-06-11 00:49:00,
2013-06-10 17:54:00,72.3,44.6,29.66,NNW,330,1.0,1.0,37,0.00,CLR,,0.00,WeatherDisplay:10.37,2013-06-11 00:54:00,
2013-06-10 17:59:00,72.3,43.8,29.65,NNW,341,2.3,2.3,36,0.00,CLR,,0.00,WeatherDisplay:10.37,2013-06-11 00:59:00,
2013-06-10 18:04:00,72.5,42.5,29.64,NNW,341,6.9,6.9,34,0.00,CLR,,0.00,WeatherDisplay:10.37,2013-06-11 01:04:00,
2013-06-10 18:09:00,72.0,43.6,29.65,NNE,18,1.1,1.1,36,0.00,CLR,,0.00,WeatherDisplay:10.37,2013-06-11 01:09:00,
2013-06-10 18:14:00,71.9,42.8,29.65,NW,306,2.3,2.3,35,0.00,CLR,,0.00,WeatherDisplay:10.37,2013-06-11 01:14:00,
2013-06-10 18:19:00,71.7,43.3,29.65,NW,306,3.5,3.5,36,0.00,CLR,,0.00,WeatherDisplay:10.37,2013-06-11 01:19:00,
2013-06-10 18:24:00,71.5,43.1,29.65,NW,306,1.1,0.0,36,0.00,CLR,,0.00,WeatherDisplay:10.37,2013-06-11 01:24:00,
2013-06-10 18:29:00,71.4,43.0,29.65,NW,310,2.3,2.3,36,0.00,CLR,,0.00,WeatherDisplay:10.37,2013-06-11 01:29:00,
2013-06-10 18:34:00,71.3,43.0,29.65,NW,314,3.5,3.5,36,0.00,CLR,,0.00,WeatherDisplay:10.37,2013-06-11 01:34:00,
2013-06-10 18:39:00,70.8,43.2,29.65,NW,311,3.5,3.5,37,0.00,CLR,,0.00,WeatherDisplay:10.37,2013-06-11 01:39:00,
2013-06-10 18:44:00,70.3,42.1,29.66,NW,315,8.1,8.1,36,0.00,CLR,,0.00,WeatherDisplay:10.37,2013-06-11 01:44:00,
2013-06-10 18:49:00,69.5,42.1,29.66,NNW,333,9.2,9.2,37,0.00,CLR,,0.00,WeatherDisplay:10.37,2013-06-11 01:49:00,
2013-06-10 18:54:00,68.9,41.5,29.66,NNW,340,8.0,8.0,37,0.00,CLR,,0.00,WeatherDisplay:10.37,2013-06-11 01:54:00,
2013-06-10 18:59:00,68.1,41.5,29.66,WNW,292,9.2,9.2,38,0.00,CLR,,0.00,WeatherDisplay:10.37,2013-06-11 01:59:00,
2013-06-10 19:05:00,67.6,41.7,29.66,NNW,340,5.8,5.8,39,0.00,CLR,,0.00,WeatherDisplay:10.37,2013-06-11 02:05:00,
2013-06-10 19:10:00,67.3,42.1,29.66,NW,322,3.5,3.5,40,0.00,CLR,,0.00,WeatherDisplay:10.37,2013-06-11 02:10:00,
2013-06-10 19:15:00,67.2,41.4,29.66,NW,311,1.1,1.1,39,0.00,CLR,,0.00,WeatherDisplay:10.37,2013-06-11 02:15:00,
2013-06-10 19:20:00,67.1,42.0,29.66,NNW,331,4.0,4.0,40,0.00,CLR,,0.00,WeatherDisplay:10.37,2013-06-11 02:20:00,
2013-06-10 19:25:00,66.7,42.2,29.66,NW,323,4.6,4.6,41,0.00,CLR,,0.00,WeatherDisplay:10.37,2013-06-11 02:25:00,
2013-06-10 19:30:00,66.0,42.2,29.67,NW,308,1.1,1.1,42,0.00,CLR,,0.00,WeatherDisplay:10.37,2013-06-11 02:30:00,
2013-06-10 19:35:00,65.2,42.1,29.67,NW,305,3.5,3.5,43,0.00,CLR,,0.00,WeatherDisplay:10.37,2013-06-11 02:35:00,
2013-06-10 19:40:00,64.6,41.6,29.67,NW,307,2.3,2.3,43,0.00,CLR,,0.00,WeatherDisplay:10.37,2013-06-11 02:40:00,
2013-06-10 19:45:00,64.1,41.7,29.67,NW,310,2.3,2.3,44,0.00,CLR,,0.00,WeatherDisplay:10.37,2013-06-11 02:45:00,
2013-06-10 19:50:00,63.6,42.4,29.67,NW,310,3.5,3.5,46,0.00,CLR,,0.00,WeatherDisplay:10.37,2013-06-11 02:50:00,
2013-06-10 19:55:00,63.1,42.5,29.67,NW,310,2.3,2.3,47,0.00,CLR,,0.00,WeatherDisplay:10.37,2013-06-11 02:55:00,
2013-06-10 20:00:00,62.6,42.6,29.67,NW,310,1.1,1.1,48,0.00,CLR,,0.00,WeatherDisplay:10.37,2013-06-11 03:00:00,
2013-06-10 20:05:00,62.2,42.3,29.68,NW,311,2.3,2.3,48,0.00,CLR,,0.00,WeatherDisplay:10.37,2013-06-11 03:05:00,
2013-06-10 20:10:00,61.8,42.4,29.68,NW,311,1.1,0.0,49,0.00,CLR,,0.00,WeatherDisplay:10.37,2013-06-11 03:10:00,
2013-06-10 20:15:00,61.4,42.1,29.68,NW,310,2.3,2.3,49,0.00,CLR,,0.00,WeatherDisplay:10.37,2013-06-11 03:15:00,
2013-06-10 20:20:00,61.1,42.3,29.68,NW,310,2.3,2.3,50,0.00,CLR,,0.00,WeatherDisplay:10.37,2013-06-11 03:20:00,
2013-06-10 20:25:00,60.7,42.5,29.68,NW,311,2.0,2.0,51,0.00,CLR,,0.00,WeatherDisplay:10.37,2013-06-11 03:25:00,
2013-06-10 20:30:00,60.3,42.1,29.69,NW,310,1.1,1.1,51,0.00,CLR,,0.00,WeatherDisplay:10.37,2013-06-11 03:30:00,
2013-06-10 20:35:00,59.8,42.1,29.69,NW,311,0.0,0.0,52,0.00,CLR,,0.00,WeatherDisplay:10.37,2013-06-11 03:35:00,
2013-06-10 20:40:00,59.3,42.2,29.69,NW,311,0.0,0.0,53,0.00,CLR,,0.00,WeatherDisplay:10.37,2013-06-11 03:40:00,
2013-06-10 20:45:00,59.0,41.9,29.70,NW,310,0.0,0.0,53,0.00,CLR,,0.00,WeatherDisplay:10.37,2013-06-11 03:45:00,
2013-06-10 20:50:00,58.7,41.6,29.70,NW,311,1.1,1.1,53,0.00,CLR,,0.00,WeatherDisplay:10.37,2013-06-11 03:50:00,
2013-06-10 20:55:00,58.6,41.5,29.70,NW,311,0.0,0.0,53,0.00,CLR,,0.00,WeatherDisplay:10.37,2013-06-11 03:55:00,
2013-06-10 21:00:00,58.4,41.3,29.71,NW,311,1.0,1.0,53,0.00,CLR,,0.00,WeatherDisplay:10.37,2013-06-11 04:00:00,
2013-06-10 21:01:00,58.4,41.3,29.71,NW,310,1.1,1.1,53,0.00,CLR,,0.00,WeatherDisplay:10.37,2013-06-11 04:01:00,
2013-06-10 21:06:00,58.2,40.6,29.71,NW,311,0.0,0.0,52,0.00,CLR,,0.00,WeatherDisplay:10.37,2013-06-11 04:06:00,
2013-06-10 21:11:00,58.1,41.0,29.71,NW,311,0.0,0.1,53,0.00,CLR,,0.00,WeatherDisplay:10.37,2013-06-11 04:11:00,
2013-06-10 21:16:00,58.0,41.0,29.71,NW,311,0.0,0.0,53,0.00,CLR,,0.00,WeatherDisplay:10.37,2013-06-11 04:16:00,
2013-06-10 21:22:00,57.8,40.8,29.72,NW,311,0.0,0.0,53,0.00,CLR,,0.00,WeatherDisplay:10.37,2013-06-11 04:22:00,
2013-06-10 21:27:00,57.3,41.3,29.72,NW,311,0.0,0.0,55,0.00,CLR,,0.00,WeatherDisplay:10.37,2013-06-11 04:27:00,
2013-06-10 21:32:00,55.9,40.9,29.73,NW,311,0.0,0.0,57,0.00,CLR,,0.00,WeatherDisplay:10.37,2013-06-11 04:32:00,
2013-06-10 21:37:00,55.2,40.7,29.73,NW,311,0.0,0.0,58,0.00,CLR,,0.00,WeatherDisplay:10.37,2013-06-11 04:37:00,
2013-06-10 21:42:00,54.8,40.7,29.74,NW,311,0.0,0.0,59,0.00,CLR,,0.00,WeatherDisplay:10.37,2013-06-11 04:42:00,
2013-06-10 21:47:00,54.3,40.7,29.75,NW,310,2.3,2.3,60,0.00,CLR,,0.00,WeatherDisplay:10.37,2013-06-11 04:47:00,
2013-06-10 21:52:00,54.3,40.7,29.75,NW,311,4.0,4.0,60,0.00,CLR,,0.00,WeatherDisplay:10.37,2013-06-11 04:52:00,
2013-06-10 21:57:00,54.1,40.9,29.75,NW,310,3.5,3.5,61,0.00,CLR,,0.00,WeatherDisplay:10.37,2013-06-11 04:57:00,
2013-06-10 22:02:00,53.7,41.0,29.74,NW,311,3.5,3.5,62,0.00,CLR,,0.00,WeatherDisplay:10.37,2013-06-11 05:02:00,
2013-06-10 22:07:00,53.7,40.6,29.74,NW,311,2.3,2.3,61,0.00,CLR,,0.00,WeatherDisplay:10.37,2013-06-11 05:07:00,
2013-06-10 22:12:00,53.1,40.4,29.74,NW,310,3.5,3.5,62,0.00,CLR,,0.00,WeatherDisplay:10.37,2013-06-11 05:12:00,
2013-06-10 22:17:00,52.3,40.5,29.75,NW,310,3.5,0.0,64,0.00,CLR,,0.00,WeatherDisplay:10.37,2013-06-11 05:17:00,
2013-06-10 22:22:00,51.9,40.1,29.75,NW,311,0.0,0.0,64,0.00,CLR,,0.00,WeatherDisplay:10.37,2013-06-11 05:22:00,
2013-06-10 22:27:00,51.7,39.9,29.75,NW,310,0.0,0.0,64,0.00,CLR,,0.00,WeatherDisplay:10.37,2013-06-11 05:27:00,
2013-06-10 22:32:00,51.8,40.0,29.75,NW,311,1.1,0.0,64,0.00,CLR,,0.00,WeatherDisplay:10.37,2013-06-11 05:32:00,
2013-06-10 22:37:00,52.3,39.7,29.75,NW,310,1.1,0.0,62,0.00,CLR,,0.00,WeatherDisplay:10.37,2013-06-11 05:37:00,
2013-06-10 22:42:00,52.6,39.9,29.74,NW,310,0.0,0.0,62,0.00,CLR,,0.00,WeatherDisplay:10.37,2013-06-11 05:42:00,
2013-06-10 22:47:00,51.9,39.3,29.74,NW,311,0.0,0.0,62,0.00,CLR,,0.00,WeatherDisplay:10.37,2013-06-11 05:47:00,
2013-06-10 22:52:00,51.5,38.9,29.75,NW,311,0.0,0.0,62,0.00,CLR,,0.00,WeatherDisplay:10.37,2013-06-11 05:52:00,
2013-06-10 22:57:00,50.7,39.7,29.75,NW,311,3.5,3.5,66,0.00,CLR,,0.00,WeatherDisplay:10.37,2013-06-11 05:57:00,
2013-06-10 23:02:00,50.4,39.1,29.74,NW,311,4.0,4.0,65,0.00,CLR,,0.00,WeatherDisplay:10.37,2013-06-11 06:02:00,
2013-06-10 23:07:00,50.0,39.1,29.74,NW,310,3.5,3.5,66,0.00,CLR,,0.00,WeatherDisplay:10.37,2013-06-11 06:07:00,
2013-06-10 23:12:00,49.7,38.8,29.74,NW,310,2.3,2.3,66,0.00,CLR,,0.00,WeatherDisplay:10.37,2013-06-11 06:12:00,
2013-06-10 23:17:00,50.1,38.4,29.74,NW,311,0.0,0.0,64,0.00,CLR,,0.00,WeatherDisplay:10.37,2013-06-11 06:17:00,
2013-06-10 23:22:00,50.5,38.8,29.73,NW,311,0.0,0.0,64,0.00,CLR,,0.00,WeatherDisplay:10.37,2013-06-11 06:22:00,
2013-06-10 23:27:00,49.7,38.8,29.74,NW,310,2.3,2.3,66,0.00,CLR,,0.00,WeatherDisplay:10.37,2013-06-11 06:27:00,
2013-06-10 23:32:00,49.2,38.7,29.74,NW,311,0.0,0.0,67,0.00,CLR,,0.00,WeatherDisplay:10.37,2013-06-11 06:32:00,
2013-06-10 23:37:00,49.0,38.5,29.74,NW,310,0.0,0.0,67,0.00,CLR,,0.00,WeatherDisplay:10.37,2013-06-11 06:37:00,
2013-06-10 23:42:00,48.7,37.8,29.74,NW,311,0.0,0.0,66,0.00,CLR,,0.00,WeatherDisplay:10.37,2013-06-11 06:42:00,
2013-06-10 23:47:00,49.0,38.5,29.74,NW,310,0.0,0.0,67,0.00,CLR,,0.00,WeatherDisplay:10.37,2013-06-11 06:47:00,
2013-06-10 23:52:00,49.0,38.9,29.74,NW,311,2.3,2.3,68,0.00,CLR,,0.00,WeatherDisplay:10.37,2013-06-11 06:52:00,
2013-06-10 23:57:00,49.0,38.9,29.74,NW,310,2.3,2.3,68,0.00,CLR,,0.00,WeatherDisplay:10.37,2013-06-11 06:57:00,